Weather History for Tampa, FL

Change the Weather History Date:

Thursday, December 19, 2013

  Actual Average Record
Temperature  
Mean Temperature 62 °F 62 °F  
Max Temperature 76 °F 71 °F 84 °F (1956)
Min Temperature 48 °F 54 °F 30 °F (1975)
Degree Days  
Heating Degree Days 3 5  
Month to date heating degree days 27 73  
Since 1 July heating degree days 57 117  
Cooling Degree Days 0 2  
Month to date cooling degree days 97 54  
Year to date cooling degree days 3833 3584  
Growing Degree Days 12 (Base 50)    
Moisture  
Dew Point 48 °F    
Average Humidity 58    
Maximum Humidity 80    
Minimum Humidity 36    
Precipitation  
Precipitation 0.00 in 0.09 in 1.72 in (1961)
Month to date precipitation 0.25 1.49  
Year to date precipitation 51.92 45.32  
Sea Level Pressure  
Sea Level Pressure 30.24 in    
Wind  
Wind Speed 5 mph (ENE)    
Max Wind Speed 9 mph    
Max Gust Speed 14 mph    
Visibility 10 miles    
Events      
T = Trace of Precipitation, MM = Missing Value Source: NWS Daily Summary

Daily Weather History Graph

Daily Weather History Graph

Search for Another Location

Airport:

Trip Planner

Search our weather history database for the weather conditions in past years. The results will help you decide how hot, cold, wet, or windy it might be!

Date:

Astronomy

Dec. 19, 2013 Rise Set
Actual Time 7:16 AM EST 5:38 PM EST
Civil Twilight 6:50 AM EST 6:04 PM EST
Nautical Twilight 6:21 AM EST 6:33 PM EST
Astronomical Twilight 5:52 AM EST 7:02 PM EST
Moon 7:53 PM EST (12/19) 8:43 AM EST (12/19)
Length of Visible Light 11h 13m
Length of Day
10h 22m
Waning Gibbous, 95% of the Moon is Illuminated
Dec 19
Waning Gibbous
Dec 25
Last Quarter
Jan 1
New
Jan 7
First Quarter
Jan 15
Full

Hourly Weather History & Observations

Time (EST) Temp. Dew Point Humidity Pressure Visibility Wind Dir Wind Speed Gust Speed Precip Events Conditions
12:53 AM 53.1 °F 42.1 °F 66% 30.28 in 10.0 mi NE 4.6 mph - N/A   Clear
1:53 AM 51.1 °F 43.0 °F 74% 30.28 in 9.0 mi NE 5.8 mph - N/A   Clear
2:53 AM 51.1 °F 43.0 °F 74% 30.28 in 8.0 mi ENE 4.6 mph - N/A   Clear
3:53 AM 48.9 °F 43.0 °F 80% 30.28 in 9.0 mi East 5.8 mph - N/A   Clear
4:53 AM 48.9 °F 43.0 °F 80% 30.27 in 10.0 mi ENE 3.5 mph - N/A   Partly Cloudy
5:53 AM 48.0 °F 42.1 °F 80% 30.27 in 10.0 mi ENE 3.5 mph - N/A   Partly Cloudy
6:53 AM 48.9 °F 42.1 °F 77% 30.27 in 10.0 mi ENE 5.8 mph - N/A   Partly Cloudy
7:53 AM 50.0 °F 42.1 °F 74% 30.28 in 8.0 mi NE 5.8 mph - N/A   Partly Cloudy
8:53 AM 55.0 °F 45.0 °F 69% 30.29 in 10.0 mi NE 6.9 mph - N/A   Clear
9:53 AM 61.0 °F 50.0 °F 67% 30.30 in 10.0 mi ENE 5.8 mph - N/A   Clear
10:53 AM 66.0 °F 52.0 °F 60% 30.29 in 10.0 mi ENE 6.9 mph - N/A   Clear
11:53 AM 71.1 °F 53.1 °F 53% 30.27 in 10.0 mi Variable 5.8 mph - N/A   Clear
12:53 PM 73.0 °F 54.0 °F 51% 30.23 in 10.0 mi SE 8.1 mph - N/A   Clear
1:53 PM 75.0 °F 50.0 °F 41% 30.21 in 10.0 mi Variable 5.8 mph - N/A   Clear
2:53 PM 75.9 °F 48.0 °F 37% 30.19 in 10.0 mi SE 8.1 mph - N/A   Clear
3:53 PM 75.9 °F 48.0 °F 37% 30.18 in 10.0 mi ESE 6.9 mph - N/A   Clear
4:53 PM 75.0 °F 46.9 °F 37% 30.19 in 9.0 mi East 4.6 mph - N/A   Partly Cloudy
5:53 PM 71.1 °F 48.0 °F 44% 30.19 in 10.0 mi ENE 4.6 mph - N/A   Partly Cloudy
6:53 PM 69.1 °F 48.9 °F 49% 30.20 in 10.0 mi Calm Calm - N/A   Partly Cloudy
7:53 PM 66.9 °F 50.0 °F 54% 30.20 in 10.0 mi NE 5.8 mph - N/A   Partly Cloudy
8:53 PM 64.9 °F 51.1 °F 61% 30.22 in 10.0 mi Calm Calm - N/A   Partly Cloudy
9:53 PM 64.0 °F 53.1 °F 67% 30.23 in 10.0 mi ENE 4.6 mph - N/A   Partly Cloudy
10:53 PM 64.0 °F 54.0 °F 70% 30.23 in 10.0 mi East 5.8 mph - N/A   Partly Cloudy
11:53 PM 64.0 °F 55.0 °F 73% 30.20 in 10.0 mi East 4.6 mph - N/A   Partly Cloudy